sat.trackr.live / text

‹ back to catalog

QIANFAN-36

NORAD 61569 · 2024-185T

PAYLOAD ACTIVE UNKNOWN

§ Identity

Operator
Country
PRC
Launch date
2024-10-15
Launch site
TAISC
Launch vehicle
Mass (kg)
RCS (m²)

External: N2YO · Heavens-Above · Gunter

§ Orbital elements

Epoch: 2026-05-25T03:50:50.964576Z

Period
106.22 min
Inclination
88.9808°
Eccentricity
0.0004351
Mean motion
13.55631243 rev/d
Perigee alt
1,048.4 km
Apogee alt
1,054.8 km
Semi-major
7,429.7 km
B*
1.7503e-4
RAAN
64.0036°
Arg perigee
302.3980°
Mean anomaly
57.6752°
Rev number
9,006

§ Raw data

QIANFAN-361 61569U 24185T   26145.16031209  .00000134  00000+0  17503-3 0  99932 61569  88.9808  64.0036 0004351 302.3980  57.6752 13.55631243 90067

JSON: /api/v1/satellites/61569 · /tle

For live sub-satellite position, see the globe view (requires WebGL).

§ Visibility from observer

Set your observer location to see the next 7 days of passes ≥ 10°. The values pass through the URL so the page stays shareable.

No JS? Fill the form by hand. The geolocation button needs JavaScript.